This is the latest recevied weather packets stored in our database for station/object CE3TDM-12. If no packets are shown the sender has not sent any weather packets the latest 10 day(s).
| Time | Temp. | Humidity | Pressure | Rain* | Wind** | Luminosity | Snow |
|---|---|---|---|---|---|---|---|
| 1787863767 | 6.67° C | 51% | 770 hPa | - | - | - | - |
| 1787863467 | 6.67° C | 51% | 770.1 hPa | - | - | - | - |
| 1787863167 | 6.67° C | 52% | 769.2 hPa | - | - | - | - |
| 1787862866 | 6.67° C | 51% | 769.4 hPa | - | - | - | - |
| 1787862566 | 7.22° C | 51% | 769.6 hPa | - | - | - | - |
| 1787862265 | 7.22° C | 51% | 769.6 hPa | - | - | - | - |
| 1787861962 | 7.22° C | 51% | 770 hPa | - | - | - | - |
| 1787861662 | 7.78° C | 51% | 770.4 hPa | - | - | - | - |
| 1787861361 | 7.22° C | 52% | 770.6 hPa | - | - | - | - |
| 1787861061 | 7.78° C | 51% | 770.4 hPa | - | - | - | - |
| 1787860761 | 7.78° C | 52% | 770.2 hPa | - | - | - | - |
| 1787860460 | 7.78° C | 52% | 770.2 hPa | - | - | - | - |
| 1787860160 | 8.33° C | 51% | 770.1 hPa | - | - | - | - |
| 1787859859 | 8.33° C | 51% | 770.1 hPa | - | - | - | - |
| 1787859559 | 7.22° C | 52% | 770.4 hPa | - | - | - | - |
| 1787859258 | 7.22° C | 52% | 770.4 hPa | - | - | - | - |
| 1787858958 | 7.78° C | 52% | 770.1 hPa | - | - | - | - |
| 1787858658 | 7.78° C | 52% | 770.1 hPa | - | - | - | - |
| 1787858357 | 7.78° C | 53% | 770.2 hPa | - | - | - | - |
| 1787858057 | 8.33° C | 53% | 770 hPa | - | - | - | - |
| 1787857756 | 8.33° C | 52% | 770.2 hPa | - | - | - | - |
| 1787857456 | 8.89° C | 52% | 770.5 hPa | - | - | - | - |
| 1787857154 | 8.89° C | 52% | 770.2 hPa | - | - | - | - |
| 1787856853 | 9.44° C | 52% | 770.1 hPa | - | - | - | - |
| 1787856552 | 10.56° C | 51% | 770.1 hPa | - | - | - | - |
* Rain since midnight (hover to see other rain measurements)
** Current wind speed in m/s (hover to see current wind gust speed)